Location: Bonningues
(50.7927°N, 2.0150°E)
Time: 16:23:00
(UTC+00:00)

Meteor 1-5 Rocket - Pass Details

Date: 08 August 2020
Orbit: 788 x 916 km, 81.2° (Epoch: 25 September)

Event Time Altitude Azimuth Distance (km) Brightness Sun altitude
Exits shadow 22:40:29 36° 193° (SSW) 1,416 4.9 -21.3°
Maximum altitude 22:43:07 88° 281° (W) 924 4.3 -21.4°
Drops below altitude 10° 22:49:07 10° 12° (NNE) 2,604 7.6 -21.8°
Sets 22:51:34 0° 13° (NNE) 3,538 8.4 -21.9°
